Tracking 19563 objects as of 20-Mar-2019
HD Live streaming from Space Station
objects crossing your sky now

RADUGA 19

Track RADUGA 19 now!
RADUGA 19 is classified as:


NORAD ID: 17046
Int'l Code: 1986-082A
Perigee: 36,276.6 km
Apogee: 36,342.9 km
Inclination: 14.7 °
Period: 1,462.5 minutes
Semi major axis: 42680 km
RCS: 5.2886 m2 (large)
Launch date: October 25, 1986
Source: Commonwealth of Independent States (former USSR) (CIS)
Launch site: TYURATAM MISSILE AND SPACE COMPLEX (TTMTR)
aabbcc
Your satellite tracking list
Your tracking list is empty




NASA's NSSDC Master Catalog

Two Line Element Set (TLE):
1 17046U 86082A   19077.70143292 -.00000039 +00000-0 +00000-0 0  9997
2 17046 014.7299 346.3848 0007767 098.3249 073.3008 00.98458738116843
Source of the keplerian elements: AFSPC